Theta_e
318 318 318 316 315 318 320 320 320 319 319 321 318 320 340 338 332 337 336 326 324 324 324 325 325 325 326 326 324 325 330 330 330 333 335 332 327 324 319 315 314 313 312 312
319 319 318 318 317 318 319 320 319 318 319 319 319 320 325 334 334 334 333 328 324 323 322 324 325 326 326 327 328 330 330 331 335 335 332 326 325 319 315 313 312 311 311 310
319 320 321 321 322 322 321 321 320 320 322 320 320 319 321 320 324 325 325 328 326 323 323 324 325 328 329 330 331 332 330 329 326 323 321 319 318 314 313 312 310 308 307 306
319 319 321 322 322 322 322 320 321 324 321 322 319 321 320 321 320 321 324 325 326 324 323 325 331 332 329 327 326 324 322 320 318 318 318 315 312 312 310 308 306 305 305 305
321 322 322 322 321 320 321 320 322 322 320 320 320 320 319 317 319 318 320 322 319 323 324 333 331 327 324 323 319 317 316 315 315 315 312 311 309 307 306 305 305 304 304 304
319 319 321 320 321 321 322 321 318 317 317 320 320 319 319 318 320 321 333 336 332 332 333 330 327 323 319 316 314 313 313 311 312 311 309 307 305 304 304 304 303 304 304 305
319 319 320 321 321 319 318 318 320 321 320 321 319 321 321 324 324 328 337 337 335 333 331 328 322 317 314 312 311 311 311 309 308 307 305 304 304 304 303 303 304 304 304 304
320 320 320 320 320 321 319 318 322 323 322 321 320 326 328 327 327 332 333 332 332 329 324 319 316 314 312 310 310 308 308 307 305 304 304 304 303 303 303 304 304 304 304 304
320 321 322 323 322 319 320 321 318 320 320 322 320 323 327 328 327 331 330 327 325 321 318 315 313 311 309 308 307 306 305 304 304 304 303 303 303 303 303 303 304 304 304 304
319 321 320 321 320 318 319 317 321 319 323 324 322 327 331 331 330 329 329 326 321 317 314 312 311 308 306 305 304 305 304 304 303 303 303 303 303 303 303 303 303 303 303 303
317 319 321 323 323 319 318 319 317 318 322 323 323 322 328 329 329 329 327 322 319 315 312 311 309 307 305 304 303 303 303 303 302 303 303 303 303 304 304 304 303 303 302 302
318 318 321 321 323 323 324 327 321 322 327 325 326 326 329 327 328 327 326 321 316 313 311 310 309 307 305 304 303 302 303 302 302 302 303 303 304 304 304 304 304 303 303 303
323 321 322 323 322 323 327 328 324 322 322 328 327 326 326 327 330 328 325 319 316 313 311 310 309 307 305 303 303 302 302 302 303 304 304 304 304 304 304 303 303 301 301 302
325 323 322 325 323 325 327 328 327 323 325 326 328 326 330 327 332 327 322 319 316 314 312 310 309 306 304 303 302 302 302 302 303 304 304 304 304 303 303 302 303 301 298 299
317 323 326 327 328 327 327 328 328 327 324 326 324 326 323 327 326 329 323 320 317 316 314 311 307 304 303 302 302 302 302 303 304 304 304 303 304 303 301 302 300 299 298 300
317 325 326 329 328 327 328 327 326 327 326 325 325 325 320 324 327 328 324 320 319 318 313 309 307 304 303 302 302 302 303 303 304 304 303 304 304 302 302 298 298 298 299 301
324 324 323 327 328 324 320 324 324 324 324 324 326 323 325 327 328 329 325 324 321 315 311 309 307 304 303 302 303 303 303 303 302 302 303 303 304 303 301 298 298 298 300 302
323 324 323 328 324 328 320 322 322 325 326 325 328 329 326 324 319 322 323 320 315 313 311 309 305 303 303 303 303 303 303 302 302 302 303 303 303 304 302 298 298 298 299 300
320 321 324 326 325 324 324 323 324 324 327 326 329 329 325 321 320 317 314 314 313 311 308 305 304 303 303 303 303 303 302 302 303 303 303 303 302 303 302 298 299 299 299 299
321 321 325 324 327 327 321 326 324 320 324 328 327 327 324 323 328 320 310 309 307 306 306 304 304 303 304 304 304 302 302 302 303 303 302 302 301 303 301 298 299 299 299 298
321 322 324 323 325 324 320 325 322 326 322 326 323 325 323 324 320 311 308 307 306 306 305 305 304 304 305 304 303 302 302 303 303 301 301 301 301 301 300 298 299 299 299 298
318 323 324 322 326 329 323 327 326 322 325 325 326 323 320 313 311 309 308 307 307 306 306 305 305 305 304 304 303 303 302 303 303 301 301 301 301 300 302 300 298 299 299 298
319 320 323 323 322 319 325 325 323 323 324 324 321 318 314 312 311 309 308 306 307 307 306 305 304 303 304 304 303 302 303 302 301 301 300 300 300 300 300 300 298 298 299 298
323 322 322 323 324 326 326 325 324 323 323 320 318 315 314 312 310 309 307 307 308 306 305 305 304 304 304 304 303 303 303 300 299 300 300 300 299 299 298 298 298 297 298 299
320 322 322 322 324 324 325 325 323 320 318 317 315 314 312 311 311 309 308 308 307 306 305 305 305 304 304 304 303 303 303 303 300 299 299 299 298 298 297 297 299 298 298 298
318 322 321 323 320 322 322 322 321 319 318 316 315 313 312 312 310 310 309 308 307 306 306 305 305 304 304 304 303 303 304 303 303 300 299 298 298 297 297 297 298 300 299 298
Wind_Speed
2 3 5 7 6 2 1 1 3 7 5 2 8 8 17 20 8 13 12 10 15 19 18 27 33 35 25 27 29 29 24 18 17 16 13 10 8 6 8 10 12 14 16 17
4 5 9 3 4 4 3 2 8 8 5 6 6 10 7 15 20 20 18 12 16 11 9 15 18 13 16 16 22 20 18 16 13 11 9 6 5 4 7 12 13 16 19 22
6 6 4 4 3 2 4 3 4 7 5 2 2 7 2 2 4 1 7 9 6 15 18 10 10 13 18 21 21 24 23 20 16 12 10 7 3 4 9 15 19 22 24 23
5 6 6 1 5 6 6 8 7 3 3 1 3 4 5 2 6 8 16 15 16 14 11 8 16 19 25 26 27 27 25 22 18 13 12 12 9 8 10 15 20 22 22 22
7 1 2 1 6 5 10 7 6 3 4 2 5 4 7 4 6 5 4 9 11 6 12 14 18 25 26 30 29 27 25 22 18 15 15 12 10 9 12 16 19 21 20 20
7 1 1 5 5 3 4 4 7 5 3 3 2 4 6 5 6 7 6 7 8 11 14 18 26 28 27 29 28 25 23 21 17 15 13 11 12 13 17 19 19 20 21 22
6 6 3 4 5 3 5 6 3 3 4 4 3 4 1 9 9 6 5 7 11 14 16 15 16 24 25 24 23 23 19 19 16 13 12 12 13 15 13 13 16 18 21 24
6 7 5 4 7 5 4 8 6 5 3 4 3 1 4 6 5 11 10 9 11 14 13 15 20 22 22 25 25 14 18 15 12 12 12 13 12 10 10 11 13 16 21 24
6 6 3 4 3 7 3 3 4 7 3 2 2 4 4 8 8 9 12 12 12 12 14 15 21 23 24 18 22 13 13 12 11 12 12 10 10 11 11 11 13 16 22 25
7 3 5 5 1 2 6 6 3 3 4 4 4 2 3 6 6 3 11 12 12 11 13 13 19 20 22 16 13 14 9 10 10 10 10 10 10 9 11 13 16 19 20 24
5 4 5 2 1 3 2 2 7 6 4 5 1 4 5 5 4 1 7 9 12 12 11 12 16 18 19 14 10 11 7 8 10 12 9 7 9 11 12 15 16 17 20 22
6 6 4 6 5 3 4 4 4 5 3 2 4 5 6 7 5 9 12 12 12 13 13 13 19 14 18 12 9 9 8 7 9 8 8 8 10 12 15 16 17 18 20 23
8 1 1 6 6 4 7 4 4 6 4 5 5 5 4 4 3 8 15 12 11 12 10 8 11 15 11 12 9 4 1 2 6 9 9 10 13 15 17 18 17 19 19 21
7 4 6 9 6 4 5 3 2 4 4 4 5 3 6 8 8 7 11 14 13 11 10 7 5 8 12 11 5 6 3 2 6 10 11 12 16 17 17 17 17 18 20 18
4 4 4 4 3 4 2 3 3 5 4 6 6 8 6 13 13 15 9 8 11 11 7 6 5 6 12 6 7 5 2 2 8 11 11 14 15 15 15 19 20 19 18 15
3 2 3 3 3 3 3 3 5 7 2 5 2 5 4 3 7 8 11 12 12 9 9 8 9 11 8 7 6 5 1 4 9 9 11 13 14 13 17 21 20 18 17 14
4 5 3 2 2 2 3 6 6 3 1 2 5 8 5 4 6 10 12 12 11 11 10 8 5 7 10 8 6 4 1 7 6 8 9 12 13 14 17 21 21 18 18 13
5 4 3 3 2 1 6 3 3 9 2 6 4 4 3 5 4 4 7 10 13 12 12 9 12 11 11 9 5 2 3 7 9 8 10 13 14 12 13 19 22 18 17 15
5 5 3 4 4 4 5 3 5 5 1 2 2 1 4 6 4 6 7 5 8 8 11 13 18 13 11 7 3 1 4 6 9 12 13 13 11 11 9 15 20 18 16 16
6 5 5 3 5 7 7 3 4 4 3 4 3 6 6 3 3 3 5 10 12 17 18 17 17 11 8 5 3 1 5 7 10 13 14 11 10 10 6 9 14 17 19 18
3 2 5 3 3 5 5 5 4 5 7 6 4 6 7 5 2 7 10 10 18 20 21 20 16 9 7 7 3 4 4 8 11 11 11 10 10 10 6 6 9 13 17 18
5 5 3 3 2 6 6 4 8 6 1 5 3 4 5 9 11 11 10 9 13 15 14 17 12 8 8 5 1 2 6 9 10 9 11 11 10 9 7 6 5 8 13 16
2 5 4 7 6 4 1 4 2 4 6 4 4 4 10 13 9 12 10 9 11 12 12 14 12 9 6 3 2 3 7 9 10 8 12 12 11 9 8 7 4 3 7 10
1 2 3 2 2 1 4 3 4 2 4 4 4 9 11 13 13 11 9 9 12 12 13 12 10 6 4 4 2 4 8 9 8 9 12 11 11 10 10 8 5 5 4 6
3 2 1 1 2 3 4 2 5 4 6 8 7 5 11 13 11 11 9 12 16 19 21 17 11 7 6 5 2 3 9 9 10 9 12 12 11 10 10 10 8 6 5 6
2 3 3 4 3 2 5 2 3 7 6 8 8 7 8 13 12 13 11 15 15 16 19 15 10 7 7 6 4 5 8 10 12 12 13 13 13 12 10 10 10 8 4 6
Wind_Direction
352 82 227 228 199 163 110 185 275 269 258 246 255 260 191 195 196 214 209 201 204 203 199 199 198 195 184 188 191 190 185 178 179 173 163 151 127 97 43 13 359 352 349 343
17 246 235 218 186 217 217 307 296 291 273 160 294 279 205 184 204 204 202 207 212 204 209 206 204 185 176 170 181 177 171 166 164 165 144 118 126 48 6 358 352 348 341 337
176 231 107 175 261 236 251 199 242 234 341 132 17 331 61 189 284 126 286 248 235 211 206 181 132 138 139 139 138 126 120 117 108 105 108 108 74 355 345 349 347 346 341 340
236 272 236 270 264 165 266 213 212 159 96 215 50 275 307 110 208 218 225 221 225 206 210 125 123 116 120 121 125 117 110 103 94 80 61 48 46 31 4 346 340 342 349 351
238 201 75 282 241 159 227 158 178 125 108 80 348 73 273 349 326 295 330 313 268 229 144 133 123 115 111 122 118 111 104 93 81 67 57 50 44 23 354 351 352 355 354 352
233 262 223 225 284 248 131 91 49 55 93 53 243 121 285 327 297 312 360 354 32 90 104 113 113 107 102 110 110 102 95 83 71 57 47 33 22 10 7 3 0 359 355 352
322 270 247 201 284 10 72 62 359 351 11 211 159 96 269 322 330 9 27 43 79 99 106 102 102 101 94 88 89 94 83 73 61 50 39 33 28 20 15 2 358 353 347 352
191 313 166 172 182 205 198 150 151 210 188 241 285 276 324 318 14 60 57 59 64 74 80 90 88 87 89 102 92 64 75 72 58 47 44 35 40 33 22 8 360 358 357 358
157 261 265 219 191 143 196 172 184 102 35 75 265 116 264 355 33 70 67 61 61 63 71 74 67 64 77 82 90 73 65 67 56 53 51 55 46 37 19 6 5 5 8 4
211 303 217 278 115 118 165 155 90 22 147 217 283 100 220 330 332 49 98 94 86 77 77 76 71 73 78 61 61 77 54 56 57 65 63 57 48 29 14 7 6 5 4 5
132 131 270 35 359 177 6 59 50 107 107 160 189 264 216 231 231 96 107 109 113 103 97 96 92 94 83 69 40 54 56 59 75 62 55 42 22 9 354 354 358 355 354 355
186 157 231 227 336 13 104 113 127 116 201 107 138 269 176 219 250 148 138 126 122 125 132 136 133 129 111 100 57 30 32 54 76 63 31 11 7 1 354 355 350 347 340 341
175 113 73 6 344 356 75 50 91 87 75 187 134 256 175 200 260 159 140 138 146 149 140 126 124 124 138 117 101 73 97 4 48 48 23 9 7 0 360 352 350 347 342 341
86 111 157 190 193 152 94 118 176 110 113 179 215 202 194 197 184 171 167 165 156 151 150 153 130 114 111 97 113 180 189 316 34 35 16 6 6 353 348 344 341 346 343 340
90 107 100 52 51 67 87 101 172 220 189 161 243 193 229 203 190 191 165 147 148 154 151 132 135 136 107 132 178 161 188 5 32 33 20 8 353 351 347 350 349 341 343 347
21 136 77 95 73 48 234 179 234 240 235 258 220 277 206 185 98 143 165 164 167 162 144 148 152 120 130 161 176 160 135 12 31 23 11 6 353 350 355 0 360 358 359 356
83 122 88 106 22 217 340 214 225 224 197 245 187 235 159 176 151 173 175 175 165 148 146 148 128 126 154 169 167 174 334 12 10 7 360 354 351 347 0 4 6 5 9 14
117 89 84 156 59 170 240 292 202 125 39 343 12 320 189 123 92 48 174 155 144 152 156 145 141 159 156 166 206 263 5 23 27 3 351 343 338 346 357 8 12 15 23 30
115 114 104 141 183 297 309 212 157 177 199 232 198 142 61 119 87 27 22 118 135 125 122 139 150 159 162 179 208 59 53 25 10 4 352 342 348 351 357 16 25 26 21 13
59 70 124 144 165 207 229 225 134 102 299 223 195 179 168 177 153 214 129 109 107 117 133 149 149 167 165 197 194 78 26 4 1 358 344 347 357 353 353 16 30 31 28 21
89 38 168 150 207 286 244 200 120 123 239 180 184 201 171 192 212 137 129 120 131 136 144 155 145 174 183 160 103 34 353 352 359 342 344 357 357 355 334 355 22 29 27 24
162 146 196 95 120 280 202 97 161 201 133 169 199 183 134 122 121 125 122 122 135 146 148 144 141 158 155 142 98 350 347 352 351 342 358 2 2 351 319 324 355 23 29 30
246 179 189 175 211 246 295 180 108 128 146 190 166 148 135 135 136 135 133 142 147 141 143 150 155 156 151 166 33 359 349 342 344 344 3 5 12 357 345 322 314 350 20 22
234 29 196 117 360 174 119 65 118 107 127 135 110 136 144 139 140 136 138 143 142 150 164 167 165 166 178 200 260 356 333 353 337 2 355 360 7 3 359 337 300 277 317 350
207 19 159 321 15 40 353 354 133 95 95 96 102 130 142 141 147 148 153 164 169 171 171 172 178 187 209 213 284 314 325 337 5 4 2 7 1 353 358 356 338 284 271 316
190 179 153 215 201 176 240 261 92 126 150 148 135 128 145 152 152 159 162 169 172 174 169 171 181 197 201 212 261 317 340 344 344 343 356 360 352 353 346 349 356 348 287 298